Date String (YYYY-MM-DD hh:mm:ss) UTC,Instrument flags,Ambient pressure (hPa),Sample flow (lpm),Bypass flow (lpm),Sample temperature (°C),Ambient temperature (°C),ASC tube jacket temperature (°C),LED temperature (°C),Box temperature (°C),Sample RH (%),Span deviation,Mass concentration (μg/m³),Mass concentration (μg/m³),Mass concentration (μg/m³)
DateTimeUTC,F1_M11,P_M11,Q1_M11,Q2_M11,T1_M11,T2_M11,T3_M11,T4_M11,T5_M11,U1_M11,ZSPAN_M11,X0_M11,X2_M11,X1_M11
2021-11-09 10:00:00,,0830.8,4.99,0.00,24.2,23.3,00.0,33.2,25.9,17.9,-000.4,0024.39,0015.84,0014.27
2021-11-09 10:01:00,,0830.7,5.00,0.00,24.2,23.3,00.0,33.2,26.0,18.0,-000.5,0024.38,0015.82,0014.27
2021-11-09 10:02:00,,0830.8,5.00,0.00,24.2,23.3,00.0,33.2,26.0,18.1,-000.7,0024.03,0015.84,0014.28
2021-11-09 10:03:00,,0830.7,5.00,0.00,24.2,23.3,00.0,33.2,26.0,18.1,-000.8,0024.31,0015.90,0014.29
2021-11-09 10:04:00,,0830.8,4.98,0.00,24.2,23.3,00.0,33.2,26.0,18.1,-000.7,0024.28,0015.87,0014.31
2021-11-09 10:05:00,,0830.9,5.01,0.00,24.2,23.3,00.0,33.2,26.0,18.2,-000.7,0024.03,0015.92,0014.34
2021-11-09 10:06:00,,0830.9,5.01,0.00,24.2,23.3,00.0,33.2,26.0,18.1,-000.6,0023.57,0015.98,0014.40
2021-11-09 10:07:00,,0830.9,5.01,0.00,24.2,23.3,00.0,33.2,25.9,18.0,-000.6,0023.88,0016.00,0014.38
2021-11-09 10:08:00,,0830.9,5.00,0.00,24.2,23.3,00.0,33.2,25.9,18.0,-000.6,0023.74,0015.91,0014.32
2021-11-09 10:09:00,,0830.7,4.99,0.00,24.1,23.2,00.0,33.2,25.9,18.1,-000.7,0023.48,0015.82,0014.26
2021-11-09 10:10:00,,0830.6,5.00,0.00,24.1,23.2,00.0,33.2,25.9,18.0,-001.0,0023.21,0015.76,0014.18
2021-11-09 10:11:00,,0830.6,5.01,0.00,24.1,23.2,00.0,33.2,25.9,18.0,-001.2,0023.20,0015.69,0014.13
2021-11-09 10:12:00,,0830.6,5.00,0.00,24.1,23.2,00.0,33.2,25.9,18.1,-000.9,0024.37,0015.67,0014.11
2021-11-09 10:13:00,,0830.7,5.00,0.00,24.1,23.2,00.0,33.2,25.9,18.2,-000.8,0025.10,0015.62,0014.10
2021-11-09 10:14:00,,0830.7,4.99,0.00,24.1,23.2,00.0,33.2,25.9,18.2,-000.7,0025.10,0015.56,0014.08
2021-11-09 10:15:00,,0830.6,5.00,0.00,24.1,23.2,00.0,33.2,25.9,18.2,-000.8,0024.75,0015.50,0014.05
2021-11-09 10:16:00,,0830.6,5.01,0.00,24.1,23.2,00.0,33.2,25.9,18.3,-000.8,0024.78,0015.47,0014.01
2021-11-09 10:17:00,,0830.5,4.99,0.00,24.1,23.2,00.0,33.2,25.9,18.3,-000.9,0024.70,0015.40,0013.98
2021-11-09 10:18:00,,0830.4,5.01,0.00,24.1,23.2,00.0,33.2,25.9,18.3,-000.8,0025.11,0015.42,0013.98
2021-11-09 10:19:00,,0830.4,5.00,0.00,24.1,23.2,00.0,33.2,25.9,18.3,-000.6,0025.52,0015.52,0014.05
2021-11-09 10:20:00,,0830.4,4.98,0.00,24.1,23.2,00.0,33.2,25.9,18.3,-000.5,0025.68,0015.64,0014.13
2021-11-09 10:21:00,,0830.5,5.01,0.00,24.1,23.2,00.0,33.2,25.9,18.3,-000.5,0025.80,0015.68,0014.21
2021-11-09 10:22:00,,0830.5,5.00,0.00,24.1,23.2,00.0,33.1,25.9,18.3,-000.6,0026.28,0015.74,0014.28
2021-11-09 10:23:00,,0830.5,4.99,0.00,24.1,23.2,00.0,33.1,25.9,18.2,-000.7,0025.65,0015.78,0014.31
2021-11-09 10:24:00,,0830.6,5.01,0.00,24.1,23.2,00.0,33.1,25.9,18.2,-000.7,0025.81,0015.81,0014.31
2021-11-09 10:25:00,,0830.6,5.02,0.00,24.1,23.2,00.0,33.1,25.9,18.1,-000.7,0026.31,0015.79,0014.30
2021-11-09 10:26:00,,0830.6,4.99,0.00,24.1,23.2,00.0,33.1,25.8,18.0,-000.6,0026.57,0015.81,0014.29
2021-11-09 10:27:00,,0830.6,4.99,0.00,24.1,23.2,00.0,33.1,25.7,18.1,-000.6,0027.81,0015.78,0014.26
2021-11-09 10:28:00,,0830.4,5.01,0.00,24.1,23.2,00.0,33.1,25.7,18.2,-000.8,0028.10,0015.75,0014.24
2021-11-09 10:29:00,,0830.4,5.01,0.00,24.0,23.2,00.0,33.1,25.8,18.2,-000.9,0027.56,0015.67,0014.23
2021-11-09 10:30:00,,0830.4,5.00,0.00,24.1,23.2,00.0,33.1,25.8,18.2,-000.9,0028.18,0015.64,0014.21
2021-11-09 10:31:00,,0830.5,5.00,0.00,24.0,23.2,00.0,33.1,25.8,18.2,-000.7,0029.14,0015.58,0014.17
2021-11-09 10:32:00,,0830.5,4.99,0.00,24.0,23.2,00.0,33.1,25.7,18.2,-000.7,0029.96,0015.54,0014.14
2021-11-09 10:33:00,,0830.5,5.00,0.00,24.0,23.1,00.0,33.1,25.7,18.1,-000.8,0030.80,0015.51,0014.08
2021-11-09 10:34:00,,0830.4,5.00,0.00,24.0,23.1,00.0,33.1,25.7,18.1,-000.7,0030.04,0015.36,0013.97
2021-11-09 10:35:00,,0830.4,4.99,0.00,24.0,23.1,00.0,33.1,25.7,18.1,-000.6,0029.08,0015.24,0013.89
2021-11-09 10:36:00,,0830.4,5.00,0.00,24.0,23.1,00.0,33.1,25.7,18.1,-000.7,0029.02,0015.19,0013.84
2021-11-09 10:37:00,,0830.5,5.00,0.00,24.0,23.1,00.0,33.1,25.7,18.1,-000.7,0029.87,0015.17,0013.80
2021-11-09 10:38:00,,0830.5,5.00,0.00,24.0,23.1,00.0,33.1,25.7,18.2,-000.8,0029.14,0015.21,0013.80
2021-11-09 10:39:00,,0830.4,4.98,0.00,24.0,23.1,00.0,33.1,25.7,18.2,-000.6,0028.69,0015.20,0013.79
2021-11-09 10:40:00,,0830.4,5.01,0.00,24.0,23.1,00.0,33.1,25.7,18.3,-000.5,0028.33,0015.20,0013.75
2021-11-09 10:41:00,,0830.3,5.00,0.00,24.0,23.1,00.0,33.1,25.7,18.3,-000.5,0027.53,0015.19,0013.74
2021-11-09 10:42:00,,0830.4,5.00,0.00,24.0,23.1,00.0,33.1,25.7,18.3,-000.5,0026.77,0015.21,0013.74
2021-11-09 10:43:00,,0830.4,5.00,0.00,24.0,23.1,00.0,33.1,25.7,18.3,-000.2,0025.72,0015.17,0013.72
2021-11-09 10:44:00,,0830.4,5.00,0.00,24.0,23.1,00.0,33.1,25.7,18.3,0000.0,0025.18,0015.19,0013.76
2021-11-09 10:45:00,,0830.4,4.99,0.00,24.0,23.1,00.0,33.1,25.7,18.3,0000.0,0025.29,0015.31,0013.85
2021-11-09 10:46:00,,0830.3,5.01,0.00,24.0,23.1,00.0,33.1,25.7,18.3,-000.1,0025.65,0015.42,0013.91
2021-11-09 10:47:00,,0830.3,4.99,0.00,24.0,23.1,00.0,33.1,25.7,18.3,-000.3,0026.21,0015.46,0013.97
2021-11-09 10:48:00,,0830.1,5.01,0.00,24.0,23.1,00.0,33.0,25.8,18.3,-000.4,0025.23,0015.52,0014.03
2021-11-09 10:49:00,,0830.1,4.98,0.00,24.0,23.1,00.0,33.0,25.8,18.3,-000.3,0024.80,0015.50,0014.08
2021-11-09 10:50:00,,0830.2,5.00,0.00,24.0,23.1,00.0,33.0,25.7,18.3,-000.6,0024.85,0015.53,0014.11
2021-11-09 10:51:00,,0830.4,5.01,0.00,24.0,23.1,00.0,33.0,25.7,18.4,-000.8,0024.79,0015.54,0014.15
2021-11-09 10:52:00,,0830.5,5.01,0.00,23.9,23.0,00.0,33.0,25.6,18.4,-001.0,0025.02,0015.52,0014.13
2021-11-09 10:53:00,,0830.5,4.99,0.00,23.9,23.0,00.0,33.0,25.6,18.3,-001.2,0025.58,0015.47,0014.11
2021-11-09 10:54:00,,0830.4,5.00,0.00,23.9,23.0,00.0,33.0,25.6,18.2,-001.4,0025.49,0015.50,0014.05
2021-11-09 10:55:00,,0830.3,5.00,0.00,23.9,23.0,00.0,33.0,25.6,18.0,-001.7,0024.78,0015.47,0013.99
2021-11-09 10:56:00,,0830.3,5.00,0.00,23.9,23.0,00.0,33.0,25.6,18.0,-001.7,0025.81,0015.42,0013.94
2021-11-09 10:57:00,,0830.2,5.00,0.00,23.9,23.0,00.0,33.0,25.6,17.9,-001.8,0026.49,0015.32,0013.86
2021-11-09 10:58:00,,0830.3,4.99,0.00,23.9,23.0,00.0,33.0,25.6,17.8,-001.7,0025.71,0015.25,0013.77
2021-11-09 10:59:00,,0830.4,5.00,0.00,23.9,23.0,00.0,33.0,25.6,17.8,-001.7,0025.61,0015.14,0013.65
